Regional Weather Roundup
Issued by NWS

Home | Current Version | Previous Version | Graphics & Text | Print | Product List | Glossary On
Versions: 1 2 3 4 5 6 7 8 9 10 11 12 13 14 15 16 17 18 19 20 21 22 23 24 25 26 27 28 29 30 31 32 33 34 35 36 37 38 39 40 41 42 43 44 45 46 47 48 49 50
000
ASUS43 KLSX 282007
RWRMO

WEATHER SUMMARY FOR MISSOURI
NATIONAL WEATHER SERVICE SPRINGFIELD MO
300 PM CDT SAT MAY 28 2016

NOTE: "FAIR" INDICATES FEW OR NO CLOUDS BELOW 12,000 FEET WITH NO
       SIGNIFICANT WEATHER AND/OR OBSTRUCTIONS TO VISIBILITY.
       CURRENT SKY AND/OR WEATHER CONDITIONS ARE NOT AVAILABLE FOR
       CHILLICOTHE AND FARMINGTON.

MOZ001>031-035>038-043-044-053-054-282100-
...NORTHERN AND WESTERN MISSOURI...

CITY           SKY/WX    TMP DP  RH WIND       PRES   REMARKS
KANSAS CTY INT PTSUNNY   74  59  59 SW17      29.89R
KANSAS C DTWN  MOSUNNY   77  58  51 SW15G21   29.89R
LEE`S SUMMIT   PTSUNNY   75  60  59 W9        29.90R
ST JOSEPH      MOSUNNY   75  59  57 W14       29.87R
CHILLICOTHE      N/A     76  62  62 S12G17    29.87S
KIRKSVILLE     LGT RAIN  75  62  64 SW15      29.87S

$$
MOZ066>068-077>081-088>096-101>105-282100-
...SOUTHWEST MISSOURI...

CITY           SKY/WX    TMP DP  RH WIND       PRES   REMARKS
SPRINGFIELD    MOSUNNY   79  64  60 SW14      29.96S
JOPLIN         PTSUNNY   76  64  66 S12       29.95R

$$
MOZ032>034-039>042-045>050-055>058-069>072-282100-
...CENTRAL MISSOURI...

CITY           SKY/WX    TMP DP  RH WIND       PRES   REMARKS
COLUMBIA       MOSUNNY   83  63  50 SW20G26   29.90S
JEFFERSON CITY MOSUNNY   83  64  52 S16       29.88S
ROLLA          MOSUNNY   81  68  64 S13       29.92S
SEDALIA        PTSUNNY   78  62  57 SW16G22   29.92S
WHITEMAN AFB   MOSUNNY   78  63  60 SW16      29.89R
WARRENSBURG    MOSUNNY   75  59  57 SW10G21   29.90S

$$
MOZ051-052-059>065-282100-
...EAST CENTRAL MISSOURI...

CITY           SKY/WX    TMP DP  RH WIND       PRES   REMARKS
ST LOUIS INTL  CLOUDY    84  65  52 S17       29.93R
SPIRIT OF STL  PTSUNNY   85  67  54 S13G20    29.90F
ST CHARLES     PTSUNNY   84  68  58 S16       29.90S

$$
MOZ072>076-082>087-097>100-106>115-282100-
...SOUTH CENTRAL AND SOUTHEAST MISSOURI...

CITY           SKY/WX    TMP DP  RH WIND       PRES   REMARKS
CAPE GIRARDEAU PTSUNNY   82  68  62 S12       29.99S
FARMINGTON     MOSUNNY   80  67  64 S14G21    29.98S
POPLAR BLUFF   PTSUNNY   81  68  64 S12       29.98S
WEST PLAINS    MOSUNNY   79  65  62 S10       30.00R

$$


USA.gov is the U.S. government's official web portal to all federal, state and local government web resources and services.